Location: Moscow
(55.7500°N, 37.5830°E)
Time: 17:06:56
(UTC+03:00)

Vanguard 1 Rocket - Pass Details

Date: 04 July 2022
Orbit: 651 x 4224 km, 34.3° (Epoch: 16 August)

Event Time Altitude Azimuth Distance (km) Brightness Sun altitude
Rises 23:10:12 0° 250° (WSW) 5,216 11.3 -9.4°
Reaches altitude 10° 23:17:25 10° 219° (SW) 3,292 9.9 -9.7°
Maximum altitude 23:19:12 11° 206° (SSW) 3,006 9.6 -9.8°
Drops below altitude 10° 23:20:49 10° 192° (SSW) 2,879 9.4 -9.9°
Enters shadow 23:21:25 - 187° (S) 2,870 9.4 -9.9°
